Regional Weather Roundup
Issued by NWS

Home | Current Version | Previous Version | Graphics & Text | Print | Product List | Glossary On
Versions: 1 2 3 4 5 6 7 8 9 10 11 12 13 14 15 16 17 18 19 20 21 22 23 24 25 26 27 28 29 30 31 32 33 34 35 36 37 38 39 40 41 42 43 44 45 46 47 48 49 50
000
ASUS43 KDTX 242001
RWRMI
MICHIGAN HOURLY REGIONAL WEATHER ROUNDUP
NATIONAL WEATHER SERVICE DETROIT/PONTIAC MI
300 PM EST MON NOV 24 2014

NOTE: "FAIR" INDICATES FEW OR NO CLOUDS BELOW 12,000 FEET WITH NO
SIGNIFICANT WEATHER AND/OR OBSTRUCTION TO VISIBILITY.

MIZ047>049-052>055-059>063-066>070-074>076-081>083-242100-
SOUTHEAST LOWER MICHIGAN

CITY           SKY/WX    TMP DP  RH WIND       PRES   REMARKS
ADRIAN         CLOUDY    39  32  76 W20G40    29.40R WCI  29
ALMA           MIX PCPN  41  38  89 SW28G39   29.19R
ANN ARBOR      CLOUDY    42  32  67 SW25G44   29.34R
BAD AXE        HVY RAIN  53  53 100 W13G18    29.07R
DETROIT CITY   CLOUDY    46  35  65 SW37G55   29.28R
DETROIT        CLOUDY    43  35  73 SW39G48   29.34R
FLINT          CLOUDY    45  38  76 SW23G37   29.23R
GROSSE ILE     CLOUDY    43  34  70 SW22G40   29.35R
HOWELL         CLOUDY    39  34  83 SW26G44   29.27R WCI  28

CITY           SKY/WX    TMP DP  RH WIND       PRES   REMARKS
JACKSON        CLOUDY    37  31  78 SW25G40   29.33R WCI  25
LAMBERTVILLE   CLOUDY    43  32  65 SW20G37   29.43R
LANSING        LGT RAIN  40  35  83 SW32G39   29.27R WCI  28
LAPEER         CLOUDY    43  39  87 SW24G43   29.21R
MASON          CLOUDY    38  33  82 SW18G37   29.30R WCI  28
MONROE         CLOUDY    43  34  70 SW32G45   29.38R
MT. CLEMENS    CLOUDY    47  40  76 SW28G44   29.23R
PONTIAC        CLOUDY    43  33  68 SW36G52   29.25R
PORT HOPE        N/A     53  52  96 VRB7      29.04R
PORT HURON     CLOUDY    50  41  71 SW18G26   29.21R
TRI CITIES     LGT RAIN  48  43  82 SW39G56   29.12R
TROY           CLOUDY    46  34  62 SW31G40   29.30R
SAGINAW HB     LGT RAIN  46  46 100 SW38G49   29.13R
$$
MIZ043>046-050>051-056>058-064>065-071>073-077>080-242100-
SOUTHWEST LOWER MICHIGAN

CITY           SKY/WX    TMP DP  RH WIND       PRES   REMARKS
BATTLE CREEK   CLOUDY    37  32  82 SW29G41   29.34R WCI  25
BENTON HARBOR  CLOUDY    34  30  85 SW30G43   29.39R WCI  20
BIG RAPIDS     LGT RAIN  46  45  97 SW16G26   29.11R
COLDWATER      CLOUDY    37  32  81 SW26G41   29.39R WCI  26
FREMONT        RAIN      41  39  93 SW20G32   29.18R
HOLLAND        SNOW      35  32  88 SW31G43   29.31R VSB 1/2 WCI  22
GRAND RAPIDS   LGT SNOW  36  35  96 SW29G41   29.27R FOG     WCI  23
IONIA          LGT RAIN  38  35  91 SW26G43   29.25R WCI  26
KALAMAZOO      LGT RAIN  36  31  82 SW23G39   29.37R WCI  24
LUDINGTON      RAIN      42  41  97 W10G17    29.12R
MARSHALL       CLOUDY    35  31  85 MISG      29.34R
MOUNT PLEASANT LGT RAIN  46  44  91 SW24G35   29.12R
MUSKEGON       LGT SNOW  37  33  85 SW28G44   29.24R WCI  25
SOUTH HAVEN    LGT SNOW  35  33  92 SW21G37   29.36R WCI  24
$$
MIZ016>042-242100-
NORTHERN LOWER MICHIGAN

CITY           SKY/WX    TMP DP  RH WIND       PRES   REMARKS
ALPENA         LGT RAIN  50  44  80 W6        29.02R
BEAVER ISLAND  CLOUDY    38  35  89 NW15G24   29.06R WCI  29
BELLAIRE       LGT SNOW  44  42  94 W5        29.06R
CADILLAC       RAIN      43  43  99 SW7       29.05R
CHARLEVOIX     DRIZZLE   40  40 100 NW13      29.09R WCI  32
FRANKFORT      RAIN      42  41  97 NW8       29.08R
GAYLORD        CLOUDY    42  42 100 NW5       29.03R FOG
GRAYLING       LGT RAIN  48  48 100 W6        29.04R
HARBOR SPRINGS CLOUDY    42  41  97 W8        29.04R FOG
HOUGHTON LAKE  LGT RAIN  46  45  96 SW7       29.04R FOG
MANISTEE       CLOUDY    43  39  87 W6        29.10R
OSCODA         LGT RAIN  50  49  97 SW8       29.02R
PELLSTON       CLOUDY    42  41  96 NW13      29.04R
ROGERS CITY    CLOUDY    47  45  93 W9        29.02R
TRAVERSE CITY  LGT RAIN  45  42  89 W8        29.06R FOG
$$
MIZ007>008-015-242100-
EASTERN UPPER MICHIGAN

CITY           SKY/WX    TMP DP  RH WIND       PRES   REMARKS
KINROSS        CLOUDY    41  41 100 W13       29.00R
MACKINAC ISLAN CLOUDY    40  40 100 W15       29.02R FOG     WCI  32
NEWBERRY       CLOUDY    35  33  94 NW16G22   29.04R WCI  25
S. S. MARIE    CLOUDY    41  39  93 W14G21    28.98R FOG
MUNISING         N/A     34  28  79 N18G30    29.14R WCI  23
$$
MIZ004>006-011>014-085-242100-
CENTRAL UPPER MICHIGAN

CITY           SKY/WX    TMP DP  RH WIND       PRES   REMARKS
MANISTIQUE     PTSUNNY   34  30  85 NW17G30   29.06R WCI  24
ESCANABA       CLOUDY    36  27  69 N16       29.11R WCI  26
MENOMINEE      CLOUDY    37  34  87 N12G17    29.11R WCI  30
SAWYER-GWINN   CLOUDY    30  25  80 NW20G25   29.14R WCI  18
$$
MIZ001>003-009>011-084-242100-
WESTERN UPPER MICHIGAN

CITY           SKY/WX    TMP DP  RH WIND       PRES   REMARKS
IRON MOUNTAIN  CLOUDY    32  25  75 N21G26    29.14R WCI  20
HOUGHTON       LGT SNOW  25  20  81 N20G33    29.23R WCI  11
COPPER HARBOR    N/A     29  25  85 NE25G37   29.22R WCI  14
IRONWOOD       CLOUDY    25  21  86 N17G23    29.29R VSB 1/2 WCI  11
$$

ABBREVIATIONS USED IN REMARKS
   TC - TEMPERATURE IN CELSIUS
  WCI - WIND CHILL INDEX
   HX - HEAT INDEX
  VSB - VISIBILITY




USA.gov is the U.S. government's official web portal to all federal, state and local government web resources and services.